Oklahoma City, OK

3:43 AM CDT on September 27, 2016 (GMT -0500)
Wiley Post

Weather History for KPWA - September, 2013

Change the Weather History Date:

Wednesday, September 4, 2013

  Actual Average Record
Temperature  
Mean Temperature 80 °F -  
Max Temperature 91 °F 87 °F 106 °F (1998)
Min Temperature 68 °F 64 °F 49 °F (1974)
Cooling Degree Days 14    
Growing Degree Days 30 (Base 50)    
Moisture  
Dew Point 59 °F    
Average Humidity 50    
Maximum Humidity 68    
Minimum Humidity 35    
Precipitation  
Precipitation 0.00 in - - ()
Sea Level Pressure  
Sea Level Pressure 30.04 in    
Wind  
Wind Speed 6 mph (ESE)    
Max Wind Speed 9 mph    
Max Gust Speed -    
Visibility 9 miles    
Events      
Averages and records for this station are not official NWS values.
T = Trace of Precipitation, MM = Missing Value Source: NWS Daily Summary

Daily Weather History Graph

Daily Weather History Graph

Search for Another Location

Airport or City:

Trip Planner

Search our weather history database for the weather conditions in past years. The results will help you decide how hot, cold, wet, or windy it might be!

Date:

Astronomy

Sep. 04, 2013 Rise Set
Actual Time 7:05 AM CDT 7:53 PM CDT
Civil Twilight 6:39 AM CDT 8:18 PM CDT
Nautical Twilight 6:08 AM CDT 8:49 PM CDT
Astronomical Twilight 5:37 AM CDT 9:20 PM CDT
Moon 6:18 AM CDT (9/4) 7:14 PM CDT (9/4)
Length of Visible Light 13h 39m
Length of Day
12h 47m
Waning Crescent, 1% of the Moon is Illuminated
Sep 4
Waning Crescent
Sep 5
New
Sep 12
First Quarter
Sep 19
Full
Sep 26
Last Quarter

Hourly Weather History & Observations

Time (CDT) Temp. Heat Index Dew Point Humidity Pressure Visibility Wind Dir Wind Speed Gust Speed Precip Events Conditions
12:53 AM 73.0 °F - 55.0 °F 53% 30.01 in 10.0 mi East 6.9 mph - N/A   Clear
1:53 AM 71.1 °F - 55.0 °F 57% 30.02 in 10.0 mi East 6.9 mph - N/A   Clear
2:53 AM 71.1 °F - 55.0 °F 57% 30.01 in 10.0 mi ESE 8.1 mph - N/A   Clear
3:53 AM 71.1 °F - 55.0 °F 57% 30.00 in 10.0 mi ESE 8.1 mph - N/A   Clear
4:53 AM 68.0 °F - 55.0 °F 63% 30.01 in 10.0 mi Calm Calm - N/A   Clear
5:53 AM 68.0 °F - 55.0 °F 63% 30.03 in 10.0 mi NE 3.5 mph - N/A   Clear
6:53 AM 68.0 °F - 55.9 °F 65% 30.05 in 9.0 mi NNE 4.6 mph - N/A   Clear
7:53 AM 69.1 °F - 57.9 °F 68% 30.07 in 9.0 mi NNE 3.5 mph - N/A   Clear
8:53 AM 75.0 °F - 59.0 °F 57% 30.09 in 8.0 mi Calm Calm - N/A   Clear
9:53 AM 79.0 °F - 61.0 °F 54% 30.09 in 8.0 mi East 3.5 mph - N/A   Clear
10:53 AM 82.0 °F 83.1 °F 63.0 °F 52% 30.09 in 7.0 mi South 4.6 mph - N/A   Clear
11:53 AM 84.9 °F 86.6 °F 64.9 °F 51% 30.09 in 7.0 mi SSE 5.8 mph - N/A   Clear
12:53 PM 88.0 °F 88.7 °F 63.0 °F 43% 30.07 in 7.0 mi SSE 6.9 mph - N/A   Clear
1:53 PM 89.1 °F 90.0 °F 63.0 °F 42% 30.06 in 7.0 mi Calm Calm - N/A   Clear
2:53 PM 91.9 °F 92.5 °F 62.1 °F 37% 30.05 in 8.0 mi ESE 9.2 mph - N/A   Clear
3:53 PM 91.9 °F 91.8 °F 61.0 °F 35% 30.03 in 8.0 mi East 8.1 mph - N/A   Clear
4:53 PM 91.0 °F 90.5 °F 60.1 °F 35% 30.01 in 8.0 mi East 8.1 mph - N/A   Clear
5:53 PM 91.0 °F 90.9 °F 61.0 °F 36% 30.01 in 8.0 mi East 5.8 mph - N/A   Clear
6:53 PM 89.1 °F 88.0 °F 57.9 °F 35% 30.01 in 9.0 mi SE 8.1 mph - N/A   Clear
7:53 PM 86.0 °F 85.0 °F 57.9 °F 38% 30.01 in 8.0 mi ESE 5.8 mph - N/A   Clear
8:53 PM 82.0 °F 82.1 °F 59.0 °F 45% 30.02 in 9.0 mi East 4.6 mph - N/A   Clear
9:53 PM 82.0 °F 83.0 °F 62.1 °F 51% 30.04 in 9.0 mi ESE 9.2 mph - N/A   Clear
10:53 PM 81.0 °F 81.7 °F 61.0 °F 50% 30.05 in 9.0 mi ESE 8.1 mph - N/A   Clear
11:53 PM 79.0 °F - 61.0 °F 54% 30.06 in 9.0 mi ESE 6.9 mph - N/A   Clear